User: anonymous   Login
Location: Hepcat Sky Observatory
(29.9800°N, 95.6500°W)
Time: 20:04:24
(UTC-05:00)
Language:

Cosmos 1602 Rocket - Orbit

View from above orbital plane
View from above orbital plane
View from above satellite
View from above satellite

Ground track
Ground track

The orbit data is extracted from the following two-line orbital elements,

1 15332U 84105B   16205.22724117  .00000123  00000-0  12105-4 0  9991
2 15332  82.5364 135.5539 0021718  19.2067  93.5437 14.83250002717820
Epoch (UTC): 23 July 2016 05:27:13
Eccentricity: 0.0021718
inclination: 82.5364°
perigee height: 604 km
apogee height: 634 km
right ascension of ascending node: 135.5539°
argument of perigee: 19.2067°
revolutions per day: 14.83250002
mean anomaly at epoch: 93.5437°
orbit number at epoch: 71782

The dashed part of the orbit path shows where the satellite is in the earth's shadow,  

DLR